Regional Weather Roundup
Issued by NWS Charleston, SC

Current Version | Previous Version | Graphics & Text | Print | Product List | Glossary On
Versions: 1 2 3 4 5 6 7 8 9 10 11 12 13 14 15 16 17 18 19 20 21 22 23 24 25 26 27 28 29 30 31 32 33 34 35 36 37 38 39 40 41 42 43 44 45 46 47 48 49 50
000 ASUS42 KCHS 231828 RWRCHS REGIONAL WEATHER ROUNDUP NATIONAL WEATHER SERVICE CHARLESTON SC 200 PM EDT SAT SEP 23 2017 NOTE: "FAIR" INDICATES FEW OR NO CLOUDS BELOW 12,000 FEET WITH NO SIGNIFICANT WEATHER AND/OR OBSTRUCTIONS TO VISIBILITY. NOT ALL STATIONS ARE QUALITY CONTROLLED. USE DATA WITH CAUTION... ESPECIALLY DEWPOINT OBSERVATIONS. SCZ027-030-031-034>040-042>050-231900- ...SOUTHEAST SOUTH CAROLINA... CITY SKY/WX TMP DP RH WIND PRES REMARKS N CHARLESTON MOSUNNY 86 69 56 SE12 30.01F HX 90 6HR MIN TEMP: 72; 6HR MAX TEMP: 88; WATERFRONT PRK N/A 83 70 64 E9 29.87S JOHNS ISLAND FAIR 84 72 65 NE13 30.02F PINOPOLIS N/A 82 68 61 NE7 29.96F MONCKS CORNER FAIR 84 61 45 NE7 30.02F SUMMERVILLE FAIR 86 63 45 NE6 30.03S BEAUFORT MCAS MOSUNNY 86 70 58 E7 30.01F HX 90 6HR MIN TEMP: 73; 6HR MAX TEMP: 87; BEAUFORT ARPT FAIR 82 70 65 E10 30.01F HILTON HEAD IS MOSUNNY 82 72 69 NE10 30.02F WALTERBORO MOCLDY 86 66 51 NE8 30.03S ALLENDALE NOT AVBL ...SOUTHERN MIDLANDS AND PEE DEE... CITY SKY/WX TMP DP RH WIND PRES REMARKS GEORGETOWN FAIR 84 68 58 E9 30.03F KINGSTREE FAIR 86 64 48 NE5 30.03S ORANGEBURG MOSUNNY 85 63 47 E8 30.03F 6HR MIN TEMP: 67; 6HR MAX TEMP: 87; BARNWELL FAIR 90 66 45 E12 30.02F HX 92 AIKEN MOCLDY 86 63 45 E10 30.07F MANNING FAIR 86 61 42 MISG 30.03S COLUMBIA PTSUNNY 89 64 43 E10 30.02F HX 90 6HR MIN TEMP: 68; 6HR MAX TEMP: 90; SUMTER PTSUNNY 85 64 48 NE8 30.00F 6HR MIN TEMP: 67; 6HR MAX TEMP: 89; FLORENCE MOSUNNY 85 66 53 NE8 30.03F 6HR MIN TEMP: 69; 6HR MAX TEMP: 88; MYRTLE BEACH MOSUNNY 84 71 65 SE8 30.03F N MYRTLE BEACH MOSUNNY 85 70 60 SE9 30.02F 6HR MIN TEMP: 71; 6HR MAX TEMP: 86; $$ GAZ063-065-086>088-099>101-113>116-118-119-134>141-150-231900- ...SOUTHEAST GEORGIA... CITY SKY/WX TMP DP RH WIND PRES REMARKS SAVANNAH ARPT PTSUNNY 87 69 54 NE10 30.00F HX 91 6HR MIN TEMP: 71; 6HR MAX TEMP: 89; HUNTER AAF CLOUDY 85 71 63 E15 29.98F HX 90 6HR MIN TEMP: 73; 6HR MAX TEMP: 86; 6HR PCP: TRACE; FORT STEWART LGT RAIN 79 70 73 NE6 29.99S 6HR MIN TEMP: 71; 6HR MAX TEMP: 82; STATESBORO MOSUNNY 86 64 47 NE5 30.02F SYLVANIA PTCLDY 87 72 62 E8 30.03F HX 93 CLAXTON FAIR 87 69 56 NE10 30.01F HX 91 ...CSRA...CENTRAL AND FAR SOUTHEAST GEORGIA... CITY SKY/WX TMP DP RH WIND PRES REMARKS THOMSON MOSUNNY 87 64 47 S8 30.09S AUGUSTA-BUSH MOSUNNY 91 66 43 E12 30.02F HX 93 6HR MIN TEMP: 66; 6HR MAX TEMP: 91; AUGUSTA-DANIEL MOSUNNY 90 64 42 E9 30.04F HX 91 SWAINSBORO MOCLDY 82 68 61 E7 30.03F VIDALIA MOSUNNY 88 68 51 E13 30.02F HX 91 EASTMAN FAIR 89 51 28 E8 30.04F HAZLEHURST MOCLDY 88 56 33 NE9G18 30.00S ALMA MOSUNNY 88 69 53 VRB6 29.99F HX 92 6HR MIN TEMP: 71; 6HR MAX TEMP: 88; WAYCROSS CLOUDY 85 70 60 E9G16 29.99F JESUP NOT AVBL BAXLEY PTSUNNY 84 70 61 NE8 29.99F BRUNSWICK PTSUNNY 81 70 69 NE14 29.99F SAINT SIMONS PTSUNNY 83 74 74 NE13 29.98F 6HR MIN TEMP: 75; 6HR MAX TEMP: 84; 6HR PCP: 1.05; $$ SCZ027-028-034-036>038-045-046-048>050-GAZ119-141-231900- ...LAKE AND SUPPLEMENTAL COASTAL OBSERVATIONS... STATION/POSITION TIME TEMP WIND PRES WAVE SWELL AIR SEA DIR/SP/G HT/PER HT/PER/DIR (UTC) (F) (DEG/KT/KT) (MB) (FT/S) (FT/S/D) WINYAH BAY 1645 79 70/ 9 1017.0 LAKE MURRAY 1720 84 50/ 2/ 6 N/A ACE BASIN NERRS 1645 86 40/ 4 1016.0 FORT PULASKI 1742 80 81 80/ 15/ 20 1016.7F SAPELO ISLAND 1700 82 CALM 1016.0 $$ ANZ835-935-AMZ111-154-330-350-352-354-370-450-454-472-231900- ...C-MAN AND BUOY OBSERVATIONS... STATION/POSITION TIME TEMP WIND PRES WAVE SWELL AIR SEA DIR/SP/G HT/PER HT/PER/DIR (UTC) (F) (DEG/KT/KT) (MB) (FT/S) (FT/S/D) BUOY 41004 1750 81 82 50/ 14/ 17 1015.7F 7/11 7/130/11 BUOY 41008 1750 80 81 60/ 16/ 19 1014.9F 5/15 3/120/15 FOLLY BEACH CMAN 1800 80 50/ 13/ 15 1017.2F CAPERS NEARSHORE NOT AVBL FRIPP NEARSHORE 1708 80 60/ 14/ 19 1022.5R STATION/POSITION TIME TEMP WIND PRES WAVE SWELL AIR SEA DIR/SP/G HT/PER HT/PER/DIR (UTC) (F) (DEG/KT/KT) (MB) (FT/S) (FT/S/D) 5E ST. MARYS GA 1800 82 N/A 5/14 3/120/14 FRYING PAN BUOY 1800 80 82 30/ 10/ 14 1016.2 BUOY 41025 1750 76 77 30/ 6/ 8 1016.7F 6/13 7/150/13 CAPE LOOKOUT NC 1800 78 50/ 11/ 12 1016.5F BUOY 41002 1750 78 79 60/ 17/ 21 1014.2F 9/13 8/130/13 BUOY 41010 1750 50/ 16/ 19 1013.4F 13/15 13/15 ST AUGUSTINE FL 1800 81 82 50/ 12/ 13 1014.2F $$

USA.gov is the U.S. government's official web portal to all federal, state and local government web resources and services.